Flag for Germany Weather past 2 weeks in Hildesheim, Lower Saxony, Germany

Now
54 °F

Broken clouds.


Feels Like: 51 °F
Forecast: 46 / 60 °F
Wind: 9 mph from Southwest

Location: Hannover

Current Time: Oct 26, 2014 at 9:58:51 AM

Latest Report: Oct 26, 2014 at 9:20 AM


Visibility: N/A

Pressure: 30.27 "Hg

Humidity: 77%

Dew point: 46 °F

Location of HildesheimLocation

Historic Weather in Hildesheim — Graph

°F

Hildesheim temperature yesterday

Maximum temperature yesterday: 55 °F (at 1:20 PM)
Minimum temperature yesterday: 50 °F (at 6:20 AM)
Average temperature yesterday: 53 °F

Past Weeks' High & Low Weather Summary

 TemperatureHumidityPressure
High73 °F (Oct 19, 4:20 PM)100% (Oct 11, 9:50 AM)30.24 "Hg (Oct 11, 9:50 AM)
Low45 °F (Oct 23, 8:50 AM)52% (Oct 14, 2:20 PM)29.42 "Hg (Oct 21, 6:20 PM)
Average56 °F86%29.90 "Hg
* Reported Oct 11 9:20 AM — Oct 26 8:50 AM, Hildesheim, Weather by CustomWeather, © 2014

Note: Actual official high and low records may vary slightly from our data, if they occured in-between our weather recording intervals... More about our weather records

Advertising

Hildesheim weather history for previous 24 hours

 ConditionsComfort  
Time TempWeatherWind HumidityBarometerVisibility
8:50 AM
Oct 26
52 °FPartly sunny.9 mph82%30.24 "HgN/A
8:20 AM50 °FPartly sunny.5 mph88%30.24 "HgN/A
7:50 AM48 °FPartly sunny.6 mph87%30.24 "HgN/A
7:20 AM48 °FPartly sunny.7 mph87%30.24 "HgN/A
6:50 AM48 °FPassing clouds.6 mph87%30.24 "HgN/A
6:20 AM50 °FPassing clouds.6 mph88%30.21 "HgN/A
5:50 AM50 °FPassing clouds.6 mph88%30.21 "HgN/A
5:20 AM50 °FPassing clouds.6 mph88%30.21 "HgN/A
4:50 AM50 °FPassing clouds.6 mph82%30.21 "HgN/A
4:20 AM50 °FPassing clouds.6 mph88%30.21 "HgN/A
3:50 AM52 °FPassing clouds.5 mph82%30.21 "HgN/A
3:20 AM52 °FPartly cloudy.6 mph88%30.21 "HgN/A
2:50 AM54 °FPassing clouds.8 mph82%30.21 "HgN/A
2:20 AM54 °FPartly cloudy.8 mph88%30.21 "HgN/A
2:50 AM54 °FPartly cloudy.8 mph88%30.21 "HgN/A
2:20 AM55 °FPassing clouds.10 mph94%30.18 "HgN/A
1:50 AM54 °FPassing clouds.5 mph100%30.18 "HgN/A
1:20 AM54 °FPassing clouds.3 mph100%30.18 "HgN/A
12:50 AM54 °FPassing clouds.3 mph94%30.18 "HgN/A
12:20 AM54 °FPassing clouds.3 mph94%30.18 "Hg6 mi
11:50 PM
Oct 25
54 °FPassing clouds.3 mph94%30.15 "Hg6 mi
11:20 PM54 °FPassing clouds.3 mph94%30.15 "Hg6 mi
10:50 PM54 °FPartly cloudy.3 mph94%30.15 "Hg6 mi
10:20 PM54 °FPartly cloudy.3 mph94%30.15 "Hg6 mi
9:50 PM54 °FPassing clouds.5 mph94%30.15 "Hg6 mi
9:20 PM52 °FPartly cloudy.3 mph100%30.15 "Hg5 mi
8:50 PM52 °FFog.3 mph100%30.12 "Hg5 mi
8:20 PM52 °FFog.3 mph100%30.12 "HgN/A
7:50 PM54 °FPassing clouds.3 mph94%30.12 "HgN/A
7:20 PM54 °FClear.5 mph94%30.12 "Hg10 mi
6:50 PM54 °FSunny.3 mph94%30.12 "Hg10 mi
6:20 PM55 °FClear.3 mph88%30.09 "Hg5 mi
5:50 PM55 °FPartly sunny.5 mph88%30.09 "Hg5 mi
5:20 PM55 °FBroken clouds.5 mph88%30.09 "HgN/A
4:50 PM55 °FBroken clouds.6 mph88%30.09 "HgN/A
4:20 PM55 °FCool.6 mph88%30.09 "HgN/A
3:50 PM55 °FPartly sunny.8 mph88%30.09 "HgN/A
3:20 PM55 °FPartly sunny.6 mph88%30.09 "HgN/A
2:50 PM55 °FPartly sunny.7 mph88%30.07 "HgN/A
2:20 PM55 °FPartly sunny.7 mph88%30.07 "Hg5 mi
1:50 PM55 °FPartly sunny.8 mph88%30.07 "Hg5 mi
1:20 PM55 °FPartly sunny.8 mph88%30.07 "Hg5 mi
12:50 PM54 °FPartly sunny.7 mph94%30.07 "HgN/A
12:20 PM54 °FPartly sunny.8 mph88%30.07 "HgN/A
11:50 AM54 °FPartly sunny.6 mph94%30.07 "HgN/A
11:20 AM54 °FPartly sunny.7 mph88%30.07 "HgN/A
10:50 AM52 °FPartly sunny.5 mph94%30.07 "HgN/A
10:20 AM52 °FPartly sunny.7 mph88%30.07 "HgN/A
9:50 AM50 °FPartly sunny.7 mph94%30.07 "HgN/A
9:20 AM50 °FPartly sunny.7 mph94%30.04 "HgN/A
Weather by CustomWeather, © 2014

See weather overviewHow to use our weather pages